WA2GUG Weather Reports


time (UTC)temp
F
wind
direction
speed
knots
gust
knots
rain 1hr
in
rain 24hr
in
rain mn
in
humidity
%
barometer
mb
20260510034429 0 218 0.0 0.0 0.00 0.00 0.00 99 1007.0
20260510033929 0 256 0.0 0.0 0.00 0.00 0.00 99 1007.0
20260510033429 0 232 0.0 0.0 0.00 0.00 0.00 99 1007.0
20260510032929 0 223 0.0 0.0 0.00 0.00 0.00 99 1007.0
20260510032429 0 229 0.0 0.0 0.00 0.00 0.00 99 1007.0
20260510031929 0 237 0.0 0.0 0.00 0.00 0.00 99 1006.2
20260510031429 0 240 0.0 0.0 0.00 0.00 0.00 99 1007.0
20260510030929 0 216 0.0 0.0 0.00 0.00 0.00 99 1007.0
20260510030429 0 263 0.0 0.0 0.00 0.00 0.00 99 1007.0
20260510025929 0 208 0.0 0.0 0.00 0.00 0.00 99 1007.0
20260510025429 0 171 0.0 0.0 0.00 0.00 0.00 99 1007.0
20260510024929 0 191 0.0 0.0 0.00 0.00 0.00 99 1007.0
20260510024429 0 257 0.0 0.0 0.00 0.00 0.00 99 1007.0
20260510023929 0 233 0.0 0.0 0.00 0.00 0.00 99 1007.0
20260510023429 0 235 0.0 0.0 0.00 0.00 0.00 99 1007.0
20260510022929 0 257 0.0 0.0 0.00 0.00 0.00 99 1007.0
20260510022429 0 256 0.0 0.0 0.00 0.00 0.00 99 1007.0
20260510021929 0 262 0.0 0.0 0.00 0.00 0.00 99 1007.0
20260510021429 0 223 0.0 0.0 0.00 0.00 0.00 99 1007.0
20260510020929 0 232 0.0 0.0 0.00 0.00 0.00 99 1007.0
20260510020428 0 223 0.0 0.0 0.00 0.00 0.00 99 1007.0
20260510015928 0 178 0.0 0.0 0.00 0.00 0.00 99 1007.0
20260510015428 0 209 0.0 0.0 0.00 0.00 0.00 99 1007.0
20260510014928 0 186 0.0 0.0 0.00 0.00 0.00 99 1007.0
20260510014429 0 171 0.0 0.0 0.00 0.00 0.00 99 1007.0
20260510013928 0 217 0.0 0.0 0.00 0.00 0.00 99 1006.2
20260510013429 0 254 0.0 0.0 0.00 0.00 0.00 99 1007.0
20260510012928 0 239 0.0 0.0 0.00 0.00 0.00 99 1007.0
20260510012428 0 195 0.0 0.0 0.00 0.00 0.00 99 1006.2
20260510011929 0 227 0.0 0.0 0.00 0.00 0.00 99 1007.0
20260510011428 0 184 0.0 0.0 0.00 0.00 0.00 99 1007.0
20260510010928 0 286 0.0 0.0 0.00 0.00 0.00 99 1007.0
20260510010428 0 234 0.0 0.0 0.00 0.00 0.00 99 1007.0
20260510005928 0 235 0.0 0.0 0.00 0.00 0.00 99 1007.0
20260510005428 0 251 0.0 0.0 0.00 0.00 0.00 99 1007.0
20260510004928 0 242 0.0 0.0 0.00 0.00 0.00 99 1007.0
20260510004428 0 238 0.0 0.0 0.00 0.00 0.00 99 1007.0
20260510003928 0 268 0.0 0.0 0.00 0.00 0.00 99 1007.0
20260510003429 0 252 0.0 0.9 0.00 0.00 0.00 99 1007.0
20260510002928 0 249 0.0 1.7 0.00 0.00 0.00 99 1006.1
20260510002428 0 230 0.0 1.7 0.00 0.00 0.00 99 1006.0
20260510001928 0 224 0.0 2.6 0.00 0.00 0.00 99 1006.0
20260510001428 0 215 0.0 3.5 0.00 0.00 0.00 99 1006.0
20260510000928 0 227 0.0 3.5 0.00 0.00 0.00 99 1006.0
20260510000428 0 229 0.0 2.6 0.00 0.00 0.00 99 1006.0
20260509235928 0 249 0.0 2.6 0.00 0.00 0.00 99 1006.0
20260509235428 0 260 0.0 2.6 0.00 0.00 0.00 99 1006.0
20260509234928 0 244 0.0 2.6 0.00 0.00 0.00 99 1006.0
20260509234428 0 237 0.9 3.5 0.00 0.00 0.00 99 1006.0
20260509233928 0 241 0.9 3.5 0.00 0.00 0.00 99 1006.0
20260509233429 0 236 0.0 3.5 0.00 0.00 0.00 99 1005.2
20260509232928 0 225 0.9 3.5 0.00 0.00 0.00 99 1006.0
20260509232428 0 227 0.0 1.7 0.00 0.00 0.00 99 1005.2
20260509231928 0 264 0.0 2.6 0.00 0.00 0.00 99 1005.2
20260509231428 0 256 0.9 2.6 0.00 0.00 0.00 99 1005.2
20260509230928 0 260 0.0 1.7 0.00 0.00 0.00 99 1005.2
20260509230428 0 274 0.0 2.6 0.00 0.00 0.00 99 1005.2
20260509225928 0 260 0.0 3.5 0.00 0.00 0.00 99 1005.2
20260509225428 0 226 0.9 3.5 0.00 0.00 0.00 99 1006.0
20260509224928 0 269 0.0 3.5 0.00 0.00 0.00 99 1006.0
20260509224428 0 237 0.9 3.5 0.00 0.00 0.00 99 1006.0
20260509223928 0 258 0.9 3.5 0.00 0.00 0.00 99 1006.0
20260509223428 0 217 0.9 3.5 0.00 0.00 0.00 99 1005.2
20260509222928 0 233 0.9 3.5 0.00 0.00 0.00 99 1005.2
20260509222428 0 176 0.9 3.5 0.00 0.00 0.00 99 1005.2
20260509221928 0 158 0.9 2.6 0.00 0.00 0.00 99 1006.0
20260509221428 0 242 0.0 3.5 0.00 0.00 0.00 99 1006.0
20260509220928 0 268 0.9 3.5 0.00 0.00 0.00 99 1006.0
20260509220428 0 158 0.9 3.5 0.00 0.00 0.00 99 1005.2
20260509215928 0 232 0.0 0.0 0.00 0.00 0.00 99 1006.0
20260509215428 0 255 0.0 0.0 0.00 0.00 0.00 99 1006.0
20260509214928 0 220 0.0 0.0 0.00 0.00 0.00 99 1006.0
20260509214428 0 245 0.0 0.0 0.00 0.00 0.00 99 1006.0
20260509213928 0 321 0.0 0.0 0.00 0.00 0.00 99 1006.0
20260509213428 0 216 0.0 0.0 0.00 0.00 0.00 99 1005.2
20260509212928 0 267 0.0 0.0 0.00 0.00 0.00 99 1006.0
20260509212428 0 180 0.0 0.0 0.00 0.00 0.00 99 1005.2
20260509211928 0 252 0.0 0.0 0.00 0.00 0.00 99 1006.0
20260509211428 0 220 0.0 0.0 0.00 0.00 0.00 99 1005.2
20260509210928 0 252 0.0 0.0 0.00 0.00 0.00 99 1006.0
20260509210428 0 227 0.0 0.0 0.00 0.00 0.00 99 1006.0
20260509205928 0 221 0.0 0.0 0.00 0.00 0.00 99 1005.2
20260509205428 0 226 0.0 0.0 0.00 0.00 0.00 99 1006.0
20260509204928 0 219 0.0 0.0 0.00 0.00 0.00 99 1006.0
20260509204428 0 268 0.0 0.0 0.00 0.00 0.00 99 1006.0
20260509203928 0 219 0.0 0.0 0.00 0.00 0.00 99 1006.0
20260509203428 0 266 0.0 0.0 0.00 0.00 0.00 99 1006.0
20260509202928 0 259 0.0 0.0 0.00 0.00 0.00 99 1006.0
20260509202428 0 240 0.0 0.0 0.00 0.00 0.00 99 1006.0
20260509201928 0 208 0.0 0.0 0.00 0.00 0.00 99 1006.0
20260509201428 0 216 0.0 0.0 0.00 0.00 0.00 99 1006.0
20260509200928 0 187 0.0 0.0 0.00 0.00 0.00 99 1006.0
20260509200428 0 215 0.0 0.0 0.00 0.00 0.00 99 1006.1
20260509195928 0 227 0.0 0.0 0.00 0.00 0.00 99 1006.1
20260509195428 0 227 0.0 0.0 0.00 0.00 0.00 99 1006.2
20260509194928 0 258 0.0 0.0 0.00 0.00 0.00 99 1006.2
20260509194428 0 236 0.0 2.6 0.00 0.00 0.00 99 1007.0
20260509193928 0 231 0.9 2.6 0.00 0.00 0.00 99 1006.2
20260509193428 0 222 1.7 2.6 0.00 0.00 0.00 99 1007.0
20260509192928 0 220 1.7 4.3 0.00 0.00 0.00 99 1007.0
20260509192428 0 217 0.9 4.3 0.00 0.00 0.00 99 1007.0
20260509191928 0 222 0.9 3.5 0.00 0.00 0.00 99 1006.2
20260509191428 0 232 0.9 3.5 0.00 0.00 0.00 99 1007.0
20260509190928 0 226 0.9 3.5 0.00 0.00 0.00 99 1007.0
20260509190428 0 234 0.9 3.5 0.00 0.00 0.00 99 1006.2
20260509185928 0 252 0.9 2.6 0.00 0.00 0.00 99 1007.0
20260509185428 0 232 0.0 0.0 0.00 0.00 0.00 99 1006.2
20260509184928 0 235 0.0 0.0 0.00 0.00 0.00 99 1006.2
20260509184428 0 247 0.0 0.0 0.00 0.00 0.00 99 1006.2
20260509183928 0 257 0.0 0.0 0.00 0.00 0.00 99 1007.0
20260509183428 0 220 0.0 0.0 0.00 0.00 0.00 99 1007.0
20260509182928 0 236 0.0 0.0 0.00 0.00 0.00 99 1007.0
20260509182428 0 228 0.0 0.0 0.00 0.00 0.00 99 1007.0
20260509181928 0 188 0.0 0.0 0.00 0.00 0.00 99 1007.0
20260509181428 0 231 0.0 0.0 0.00 0.00 0.00 99 1006.2
20260509180928 0 215 0.0 0.0 0.00 0.00 0.00 99 1007.0
20260509180428 0 222 0.0 0.0 0.00 0.00 0.00 99 1006.2
20260509175928 0 258 0.0 0.0 0.00 0.00 0.00 99 1006.2
20260509175428 0 230 0.0 0.0 0.00 0.00 0.00 99 1007.0
20260509174928 0 226 0.0 0.0 0.00 0.00 0.00 99 1006.2
20260509174428 0 218 0.0 0.0 0.00 0.00 0.00 99 1007.0
20260509173928 0 272 0.0 0.0 0.00 0.00 0.00 99 1006.2
20260509173428 0 223 0.0 0.0 0.00 0.00 0.00 99 1006.2
20260509172928 0 219 0.0 0.0 0.00 0.00 0.00 99 1006.2
20260509172428 0 228 0.0 0.0 0.00 0.00 0.00 99 1006.2
20260509171928 0 266 0.0 0.0 0.00 0.00 0.00 99 1007.0
20260509171428 0 220 0.0 3.5 0.00 0.00 0.00 99 1007.0
20260509170928 0 225 0.0 3.5 0.00 0.00 0.00 99 1007.0
20260509170428 0 239 0.0 0.0 0.00 0.00 0.00 99 1007.1
20260509165928 0 266 0.0 0.0 0.00 0.00 0.00 99 1007.2
20260509165428 0 227 0.0 0.0 0.00 0.00 0.00 99 1007.2
20260509164928 0 255 0.0 0.0 0.00 0.00 0.00 99 1007.2
20260509164428 0 231 0.0 0.0 0.00 0.00 0.00 99 1007.2
20260509163928 0 271 0.0 0.0 0.00 0.00 0.00 99 1007.2
20260509163428 0 263 0.0 0.0 0.00 0.00 0.00 99 1007.2
20260509162928 0 272 0.0 0.0 0.00 0.00 0.00 99 1007.2
20260509162428 0 253 0.0 0.0 0.00 0.00 0.00 99 1007.2
20260509161928 0 257 0.0 0.0 0.00 0.00 0.00 99 1008.0
20260509161428 0 282 0.0 0.0 0.00 0.00 0.00 99 1007.2
20260509160928 0 277 0.0 0.0 0.00 0.00 0.00 99 1007.2
20260509160428 0 274 0.0 0.0 0.00 0.00 0.00 99 1007.2
20260509155928 0 184 0.0 0.0 0.00 0.00 0.00 99 1007.2
20260509155428 0 50 0.0 0.0 0.00 0.00 0.00 99 1007.2
20260509154928 0 134 0.0 0.0 0.00 0.00 0.00 99 1007.2
20260509154428 0 132 0.0 0.0 0.00 0.00 0.00 99 1007.2
20260509153928 0 135 0.0 0.0 0.00 0.00 0.00 99 1007.2
20260509153428 0 100 0.0 0.0 0.00 0.00 0.00 99 1007.2
20260509152928 0 333 0.0 0.0 0.00 0.00 0.00 99 1008.0
20260509152428 0 267 0.0 0.0 0.00 0.00 0.00 99 1007.2
20260509151928 0 139 0.0 0.0 0.00 0.00 0.00 99 1008.0
20260509151428 0 55 0.0 0.0 0.00 0.00 0.00 99 1007.2
20260509150928 0 41 0.0 0.0 0.00 0.00 0.00 99 1008.0
20260509150428 0 246 0.0 0.0 0.00 0.00 0.00 99 1008.0
20260509145928 0 89 0.0 0.0 0.00 0.00 0.00 99 1008.0
20260509145428 0 311 0.0 0.0 0.00 0.00 0.00 99 1008.0
20260509144928 0 207 0.0 0.0 0.00 0.00 0.00 99 1008.0
20260509144428 0 144 0.0 0.0 0.00 0.00 0.00 99 1007.2
20260509143928 0 91 0.0 0.0 0.00 0.00 0.00 99 1008.0
20260509143428 0 90 0.0 0.0 0.00 0.00 0.00 99 1008.0
20260509142928 0 35 0.0 0.0 0.00 0.00 0.00 99 1008.0
20260509142428 0 270 0.0 0.0 0.00 0.00 0.00 99 1008.0
20260509141928 0 7 0.0 0.0 0.00 0.00 0.00 99 1008.0
20260509141428 0 63 0.0 0.0 0.00 0.00 0.00 99 1008.0
20260509140928 0 14 0.0 0.0 0.00 0.00 0.00 99 1008.0
20260509140428 0 229 0.0 0.0 0.00 0.00 0.00 99 1008.0
20260509135928 0 280 0.0 0.0 0.00 0.00 0.00 99 1008.0
20260509135428 0 47 0.0 0.0 0.00 0.00 0.00 99 1008.0
20260509134928 0 55 0.0 0.0 0.00 0.00 0.00 99 1008.0
20260509134428 0 358 0.0 0.0 0.00 0.00 0.00 99 1008.0
20260509133928 0 78 0.0 0.0 0.00 0.00 0.00 99 1008.0
20260509133428 0 194 0.0 0.0 0.00 0.00 0.00 99 1008.0
20260509132928 0 37 0.0 0.0 0.00 0.00 0.00 99 1008.0
20260509132428 0 80 0.0 0.0 0.00 0.00 0.00 99 1008.0
20260509131928 0 294 0.0 0.0 0.00 0.00 0.00 99 1008.0
20260509131428 0 57 0.0 0.0 0.00 0.00 0.00 99 1008.0
20260509130928 0 262 0.0 0.0 0.00 0.00 0.00 99 1008.0
20260509130428 0 358 0.0 0.0 0.00 0.00 0.00 99 1008.0
20260509125928 0 15 0.0 0.0 0.00 0.00 0.00 99 1008.0
20260509125428 0 351 0.0 0.0 0.00 0.00 0.00 99 1008.0
20260509124928 0 9 0.0 0.0 0.00 0.00 0.00 99 1008.0
20260509124428 0 260 0.0 0.0 0.00 0.00 0.00 99 1008.1
20260509123928 0 240 0.0 0.0 0.00 0.00 0.00 99 1008.2
20260509123428 0 265 0.0 0.0 0.00 0.00 0.00 99 1008.2
20260509122928 0 32 0.0 0.0 0.00 0.00 0.00 99 1008.2
20260509122428 0 11 0.0 0.0 0.00 0.00 0.00 99 1008.2
20260509121928 0 57 0.0 0.0 0.00 0.00 0.00 99 1008.2
20260509121428 0 45 0.0 0.0 0.00 0.00 0.00 99 1008.2
20260509120927 0 99 0.0 0.0 0.00 0.00 0.00 99 1009.0
20260509120428 42 58 0.0 0.0 0.00 0.00 0.00 99 1009.0
20260509115928 0 102 0.0 0.0 0.00 0.00 0.00 99 1008.2
20260509115427 0 56 0.0 0.0 0.00 0.00 0.00 99 1008.2
20260509114927 42 110 0.0 0.0 0.00 0.00 0.00 99 1008.2
20260509114427 42 58 0.0 0.0 0.00 0.00 0.00 99 1008.2
20260509113927 42 15 0.0 0.0 0.00 0.00 0.00 99 1009.0
20260509113428 41 311 0.0 0.0 0.00 0.00 0.00 99 1008.2
20260509112927 41 296 0.0 0.0 0.00 0.00 0.00 99 1009.0
20260509112427 41 359 0.0 0.0 0.00 0.00 0.00 99 1008.2
20260509111927 41 351 0.0 0.0 0.00 0.00 0.00 99 1008.2
20260509111427 41 303 0.0 0.0 0.00 0.00 0.00 99 1008.2
20260509110927 41 255 0.0 0.0 0.00 0.00 0.00 99 1009.0
20260509110427 41 135 0.0 0.0 0.00 0.00 0.00 99 1009.0
20260509105927 41 164 0.0 0.0 0.00 0.00 0.00 99 1009.0
20260509105427 40 180 0.0 0.0 0.00 0.00 0.00 99 1008.2
20260509104927 40 211 0.0 0.0 0.00 0.00 0.00 99 1008.2
20260509104427 40 218 0.0 0.0 0.00 0.00 0.00 99 1009.0
20260509103927 40 219 0.0 0.0 0.00 0.00 0.00 99 1008.2
20260509103428 40 275 0.0 0.0 0.00 0.00 0.00 99 1009.0
20260509102927 40 234 0.0 0.0 0.00 0.00 0.00 99 1008.2
20260509102427 40 190 0.0 0.0 0.00 0.00 0.00 99 1008.2
20260509101927 40 303 0.0 0.0 0.00 0.00 0.00 99 1009.0
20260509101427 40 217 0.0 0.0 0.00 0.00 0.00 99 1009.0
20260509100927 40 225 0.0 0.0 0.00 0.00 0.00 99 1008.2
20260509100427 39 193 0.0 0.0 0.00 0.00 0.00 99 1009.0
20260509095927 39 192 0.0 0.0 0.00 0.00 0.00 99 1009.0
20260509095427 39 251 0.0 0.0 0.00 0.00 0.00 99 1009.0
20260509094927 39 275 0.0 0.0 0.00 0.00 0.00 99 1009.0
20260509094427 39 240 0.0 0.0 0.00 0.00 0.00 99 1009.0
20260509093927 39 204 0.0 0.0 0.00 0.00 0.00 99 1008.2
20260509093428 39 207 0.0 0.0 0.00 0.00 0.00 99 1009.0
20260509092927 39 160 0.0 0.0 0.00 0.00 0.00 99 1009.0
20260509092427 39 135 0.0 0.0 0.00 0.00 0.00 99 1009.0
20260509091927 39 216 0.0 0.0 0.00 0.00 0.00 99 1008.2
20260509091427 39 45 0.0 0.0 0.00 0.00 0.00 99 1009.0
20260509090927 39 239 0.0 0.0 0.00 0.00 0.00 99 1008.2
20260509090427 39 267 0.0 0.0 0.00 0.00 0.00 99 1009.0
20260509085927 39 6 0.0 0.0 0.00 0.00 0.00 99 1008.2
20260509085427 39 146 0.0 0.0 0.00 0.00 0.00 99 1008.2
20260509084927 39 81 0.0 0.0 0.00 0.00 0.00 99 1008.2
20260509084427 39 83 0.0 0.0 0.00 0.00 0.00 99 1009.0
20260509083927 39 96 0.0 0.0 0.00 0.00 0.00 99 1009.0
20260509083427 39 354 0.0 0.0 0.00 0.00 0.00 99 1009.0
20260509082927 39 325 0.0 0.0 0.00 0.00 0.00 99 1008.2
20260509082427 39 14 0.0 0.0 0.00 0.00 0.00 99 1009.0
20260509081927 39 37 0.0 0.0 0.00 0.00 0.00 99 1008.2
20260509081427 39 121 0.0 0.0 0.00 0.00 0.00 99 1009.0
20260509080927 39 175 0.0 0.0 0.00 0.00 0.00 99 1008.2
20260509080427 39 315 0.0 0.0 0.00 0.00 0.00 99 1009.0
20260509075927 39 309 0.0 0.0 0.00 0.00 0.00 99 1008.2
20260509075427 39 305 0.0 0.0 0.00 0.00 0.00 99 1009.0
20260509074927 39 279 0.0 0.0 0.00 0.00 0.00 99 1008.2
20260509074427 39 248 0.0 0.0 0.00 0.00 0.00 99 1009.0
20260509073927 39 306 0.0 0.0 0.00 0.00 0.00 99 1008.2
20260509073427 38 12 0.0 0.0 0.00 0.00 0.00 99 1009.0
20260509072927 38 343 0.0 0.0 0.00 0.00 0.00 99 1008.2
20260509072427 38 9 0.0 0.0 0.00 0.00 0.00 99 1008.2
20260509071927 38 138 0.0 0.0 0.00 0.00 0.00 99 1008.1
20260509071427 38 136 0.0 0.0 0.00 0.00 0.00 99 1008.1
20260509070927 38 43 0.0 0.0 0.00 0.00 0.00 99 1008.2
20260509070427 37 328 0.0 0.0 0.00 0.00 0.00 99 1008.2
20260509065927 37 118 0.0 0.0 0.00 0.00 0.00 99 1008.2
20260509065427 37 59 0.0 0.0 0.00 0.00 0.00 99 1009.0
20260509064927 37 334 0.0 0.0 0.00 0.00 0.00 99 1008.1
20260509064427 37 255 0.0 0.0 0.00 0.00 0.00 99 1008.0
20260509063927 37 210 0.0 0.0 0.00 0.00 0.00 99 1008.1
20260509063427 37 345 0.0 0.0 0.00 0.00 0.00 99 1009.0
20260509062927 37 19 0.0 0.0 0.00 0.00 0.00 99 1009.0
20260509062427 36 12 0.0 0.0 0.00 0.00 0.00 99 1009.0
20260509061927 36 122 0.0 0.0 0.00 0.00 0.00 99 1008.2
20260509061427 36 129 0.0 0.0 0.00 0.00 0.00 99 1009.0
20260509060927 36 309 0.0 0.0 0.00 0.00 0.00 99 1008.2
20260509060427 35 315 0.0 0.0 0.00 0.00 0.00 99 1009.0
20260509055927 35 302 0.0 0.0 0.00 0.00 0.00 99 1008.2
20260509055427 35 148 0.0 0.0 0.00 0.00 0.00 99 1009.0
20260509054927 35 148 0.0 0.0 0.00 0.00 0.00 99 1008.2
20260509054427 35 135 0.0 0.0 0.00 0.00 0.00 99 1009.0
20260509053927 34 135 0.0 0.0 0.00 0.00 0.00 99 1008.2
20260509053427 34 135 0.0 0.0 0.00 0.00 0.00 99 1009.0
20260509052927 34 135 0.0 0.0 0.00 0.00 0.00 99 1008.2
20260509052427 33 138 0.0 0.0 0.00 0.00 0.00 99 1009.0
20260509051927 33 207 0.0 0.0 0.00 0.00 0.00 99 1009.0
20260509051427 33 164 0.0 0.0 0.00 0.00 0.00 99 1009.0
20260509050927 33 157 0.0 0.0 0.00 0.00 0.00 99 1009.0
20260509050427 34 157 0.0 0.0 0.00 0.00 0.00 99 1009.0
20260509045927 34 157 0.0 0.0 0.00 0.00 0.00 99 1008.2
20260509045427 34 142 0.0 0.0 0.00 0.00 0.00 99 1009.0
20260509044927 34 135 0.0 0.0 0.00 0.00 0.00 99 1009.0
20260509044427 35 179 0.0 0.0 0.00 0.00 0.00 99 1009.0
20260509043927 35 180 0.0 0.0 0.00 0.00 0.00 99 1009.0
20260509043427 36 180 0.0 0.0 0.00 0.00 0.00 99 1009.0
20260509042927 36 169 0.0 0.0 0.00 0.00 0.00 99 1009.0
20260509042427 36 135 0.0 0.0 0.00 0.00 0.00 99 1009.0
20260509041927 36 123 0.0 0.0 0.00 0.00 0.00 99 1009.0
20260509041427 36 358 0.0 0.0 0.00 0.00 0.00 99 1009.0
20260509040927 36 45 0.0 0.0 0.00 0.00 0.00 99 1009.0
20260509040427 36 112 0.0 0.0 0.00 0.00 0.00 99 1009.0
20260509035927 36 127 0.0 0.0 0.00 0.00 0.00 99 1009.0
20260509035427 36 106 0.0 0.0 0.00 0.00 0.00 99 1009.0
20260509034927 35 156 0.0 0.0 0.00 0.00 0.00 99 1008.2